,,Stat6,,Stat2,,Stat8,,Stat9,,Stat10,,Wind1,,Wind1,
time,status,PA1M_AVG,status,PR1M_SUM,status,RH1M_AVG,status,SR1M_AVG,status,TA1M_AVG,status,W1dAve1m,status,W1sAve1m,
2005-01-05, 00:00:00,VALID,918.717,VALID,0,VALID,98.1183,VALID,-0.101885,VALID,20.0247,VALID,147,VALID,1.62908,
2005-01-05, 00:01:00,VALID,918.701,VALID,0,VALID,98.1819,VALID,-0.118866,VALID,20.0218,VALID,149,VALID,1.64043,
2005-01-05, 00:02:00,VALID,918.704,VALID,0,VALID,98.2264,VALID,-0.0849042,VALID,20.0151,VALID,145,VALID,1.49237,
2005-01-05, 00:03:00,VALID,918.702,VALID,0,VALID,98.2976,VALID,-0.101885,VALID,19.9984,VALID,145,VALID,1.65606,
2005-01-05, 00:04:00,VALID,918.697,VALID,0,VALID,98.3256,VALID,-0.101885,VALID,19.986,VALID,147,VALID,2.17129,
2005-01-05, 00:05:00,VALID,918.699,VALID,0,VALID,98.2531,VALID,-0.101885,VALID,19.9827,VALID,133,VALID,2.25289,
2005-01-05, 00:06:00,VALID,918.689,VALID,0,VALID,97.9975,VALID,-0.101885,VALID,20.0016,VALID,141,VALID,2.10265,
2005-01-05, 00:07:00,VALID,918.681,VALID,0,VALID,97.9136,VALID,-0.0849042,VALID,20.0277,VALID,145,VALID,2.25409,
2005-01-05, 00:08:00,VALID,918.681,VALID,0,VALID,97.8144,VALID,-0.0849042,VALID,20.0275,VALID,121,VALID,2.12754,
2005-01-05, 00:09:00,VALID,918.694,VALID,0,VALID,97.8703,VALID,-0.0849042,VALID,20.0208,VALID,122,VALID,2.0303,
2005-01-05, 00:10:00,VALID,918.67,VALID,0,VALID,97.8118,VALID,-0.101885,VALID,20.0021,VALID,135,VALID,1.72824,
2005-01-05, 00:11:00,VALID,918.676,VALID,0,VALID,97.7546,VALID,-0.0849042,VALID,20.0153,VALID,134,VALID,1.86914,
2005-01-05, 00:12:00,VALID,918.679,VALID,0,VALID,97.7419,VALID,-0.118866,VALID,19.9981,VALID,124,VALID,1.59051,
2005-01-05, 00:13:00,VALID,918.668,VALID,0,VALID,97.7088,VALID,-0.101885,VALID,20.0016,VALID,116,VALID,2.08498,
2005-01-05, 00:14:00,VALID,918.653,VALID,0,VALID,97.6796,VALID,-0.118866,VALID,20.0088,VALID,117,VALID,1.87972,
2005-01-05, 00:15:00,VALID,918.642,VALID,0,VALID,97.6948,VALID,-0.101885,VALID,19.9919,VALID,121,VALID,1.61626,
2005-01-05, 00:16:00,VALID,918.627,VALID,0,VALID,97.4914,VALID,-0.0849042,VALID,20.0183,VALID,122,VALID,1.90843,
2005-01-05, 00:17:00,VALID,918.603,VALID,0,VALID,97.3261,VALID,-0.0849042,VALID,20.0434,VALID,123,VALID,1.52437,
2005-01-05, 00:18:00,VALID,918.589,VALID,0,VALID,97.2638,VALID,-0.101885,VALID,20.0831,VALID,117,VALID,1.86338,
2005-01-05, 00:19:00,VALID,918.556,VALID,0,VALID,97.1697,VALID,-0.0169808,VALID,20.0849,VALID,130,VALID,2.08943,
2005-01-05, 00:20:00,VALID,918.555,VALID,0,VALID,97.0845,VALID,0.0169808,VALID,20.1002,VALID,133,VALID,1.875,
2005-01-05, 00:21:00,VALID,918.529,VALID,0,VALID,96.9815,VALID,0.0169808,VALID,20.1236,VALID,114,VALID,1.55433,
2005-01-05, 00:22:00,VALID,918.531,VALID,0,VALID,96.9484,VALID,0.0509425,VALID,20.1258,VALID,130,VALID,1.55804,
2005-01-05, 00:23:00,VALID,918.519,VALID,0,VALID,96.9497,VALID,0,VALID,20.1201,VALID,120,VALID,1.98801,
2005-01-05, 00:24:00,VALID,918.508,VALID,0,VALID,96.8772,VALID,0,VALID,20.1425,VALID,113,VALID,2.12348,
2005-01-05, 00:25:00,VALID,918.512,VALID,0,VALID,96.8632,VALID,0,VALID,20.1495,VALID,127,VALID,1.44607,
2005-01-05, 00:26:00,VALID,918.498,VALID,0,VALID,96.9611,VALID,0,VALID,20.149,VALID,114,VALID,1.50859,
2005-01-05, 00:27:00,VALID,918.488,VALID,0,VALID,96.9865,VALID,0.0169808,VALID,20.1395,VALID,109,VALID,1.38853,
2005-01-05, 00:28:00,VALID,918.47,VALID,0,VALID,96.9509,VALID,-0.0169808,VALID,20.1331,VALID,120,VALID,1.63832,
2005-01-05, 00:29:00,VALID,918.453,VALID,0,VALID,96.9026,VALID,0.0339617,VALID,20.1229,VALID,109,VALID,1.40607,
2005-01-05, 00:30:00,VALID,918.441,VALID,0,VALID,96.8416,VALID,0.0339617,VALID,20.1363,VALID,117,VALID,1.87766,
2005-01-05, 00:31:00,VALID,918.404,VALID,0,VALID,96.7907,VALID,0,VALID,20.1484,VALID,102,VALID,1.37738,
2005-01-05, 00:32:00,VALID,918.38,VALID,0,VALID,96.7093,VALID,0,VALID,20.1621,VALID,109,VALID,2.03697,
2005-01-05, 00:33:00,VALID,918.364,VALID,0,VALID,96.6547,VALID,0,VALID,20.1688,VALID,106,VALID,1.00109,
2005-01-05, 00:34:00,VALID,918.331,VALID,0,VALID,96.6648,VALID,0,VALID,20.1694,VALID,113,VALID,1.2184,
2005-01-05, 00:35:00,VALID,918.321,VALID,0,VALID,96.6712,VALID,0,VALID,20.1559,VALID,123,VALID,1.28307,
2005-01-05, 00:36:00,VALID,918.288,VALID,0,VALID,96.7004,VALID,0,VALID,20.14,VALID,101,VALID,1.36501,
2005-01-05, 00:37:00,VALID,918.266,VALID,0,VALID,96.75,VALID,0,VALID,20.1301,VALID,111,VALID,1.52422,
2005-01-05, 00:38:00,VALID,918.259,VALID,0,VALID,96.8543,VALID,0,VALID,20.0975,VALID,121,VALID,1.23983,
2005-01-05, 00:39:00,VALID,918.23,VALID,0,VALID,96.895,VALID,0,VALID,20.0814,VALID,112,VALID,1.07613,
2005-01-05, 00:40:00,VALID,918.211,VALID,0,VALID,96.9382,VALID,0,VALID,20.069,VALID,110,VALID,1.10429,
2005-01-05, 00:41:00,VALID,918.181,VALID,0,VALID,97.0094,VALID,0,VALID,20.0526,VALID,111,VALID,1.55051,
2005-01-05, 00:42:00,VALID,918.165,VALID,0,VALID,97.1099,VALID,-0.0169808,VALID,20.0332,VALID,121,VALID,1.13711,
2005-01-05, 00:43:00,VALID,918.137,VALID,0,VALID,97.2396,VALID,0,VALID,20.017,VALID,124,VALID,1.52557,
2005-01-05, 00:44:00,VALID,918.123,VALID,0,VALID,97.3362,VALID,0,VALID,20.0071,VALID,128,VALID,1.45122,
2005-01-05, 00:45:00,VALID,918.107,VALID,0,VALID,97.3757,VALID,-0.0169808,VALID,19.9974,VALID,125,VALID,1.04851,
2005-01-05, 00:46:00,VALID,918.1,VALID,0,VALID,97.4609,VALID,0,VALID,19.9981,VALID,124,VALID,1.58994,
2005-01-05, 00:47:00,VALID,918.103,VALID,0,VALID,97.4787,VALID,0,VALID,19.9812,VALID,129,VALID,1.45712,
2005-01-05, 00:48:00,VALID,918.087,VALID,0,VALID,97.5028,VALID,0.0169808,VALID,19.9845,VALID,130,VALID,2.04542,
2005-01-05, 00:49:00,VALID,918.084,VALID,0,VALID,97.4939,VALID,0,VALID,19.9979,VALID,135,VALID,1.58259,
2005-01-05, 00:50:00,VALID,918.063,VALID,0,VALID,97.5283,VALID,0,VALID,19.9817,VALID,129,VALID,1.58521,
2005-01-05, 00:51:00,VALID,918.047,VALID,0,VALID,97.5677,VALID,-0.0169808,VALID,19.979,VALID,139,VALID,1.82374,
2005-01-05, 00:52:00,VALID,918.036,VALID,0,VALID,97.5817,VALID,0,VALID,19.9554,VALID,138,VALID,1.62882,
2005-01-05, 00:53:00,VALID,917.999,VALID,0,VALID,97.644,VALID,0,VALID,19.9624,VALID,139,VALID,1.65415,
2005-01-05, 00:54:00,VALID,917.972,VALID,0,VALID,97.7533,VALID,0,VALID,19.9397,VALID,136,VALID,1.61836,
2005-01-05, 00:55:00,VALID,917.957,VALID,0,VALID,97.8436,VALID,-0.0169808,VALID,19.9266,VALID,146,VALID,2.13205,
2005-01-05, 00:56:00,VALID,917.919,VALID,0,VALID,97.9759,VALID,0,VALID,19.9169,VALID,141,VALID,2.27972,
2005-01-05, 00:57:00,VALID,917.898,VALID,0,VALID,98.0229,VALID,-0.0169808,VALID,19.9072,VALID,144,VALID,1.68821,
2005-01-05, 00:58:00,VALID,917.87,VALID,0,VALID,98.0712,VALID,-0.0169808,VALID,19.8945,VALID,133,VALID,1.46274,
2005-01-05, 00:59:00,VALID,917.851,VALID,0,VALID,98.1106,VALID,0,VALID,19.8883,VALID,143,VALID,1.59539,
2005-01-05, 01:00:00,VALID,917.825,VALID,0,VALID,98.1691,VALID,0,VALID,19.8913,VALID,135,VALID,2.06269,
2005-01-05, 01:01:00,VALID,917.814,VALID,0,VALID,98.1183,VALID,0,VALID,19.8848,VALID,136,VALID,1.73082,
2005-01-05, 01:02:00,VALID,917.8,VALID,0,VALID,98.0483,VALID,0,VALID,19.8848,VALID,127,VALID,1.70636,
2005-01-05, 01:03:00,VALID,917.781,VALID,0,VALID,97.9593,VALID,0,VALID,19.8848,VALID,129,VALID,1.58185,
2005-01-05, 01:04:00,VALID,917.755,VALID,0,VALID,97.8614,VALID,0.0339617,VALID,19.8938,VALID,129,VALID,1.37742,
2005-01-05, 01:05:00,VALID,917.731,VALID,0,VALID,97.836,VALID,0,VALID,19.9007,VALID,127,VALID,1.79268,
2005-01-05, 01:06:00,VALID,917.719,VALID,0,VALID,97.8055,VALID,0,VALID,19.9077,VALID,122,VALID,1.37322,
2005-01-05, 01:07:00,VALID,917.689,VALID,0,VALID,97.7966,VALID,0,VALID,19.9007,VALID,128,VALID,1.64416,
2005-01-05, 01:08:00,VALID,917.683,VALID,0,VALID,97.8563,VALID,0,VALID,19.9042,VALID,126,VALID,1.59527,
2005-01-05, 01:09:00,VALID,917.669,VALID,0,VALID,97.9174,VALID,0.0169808,VALID,19.894,VALID,134,VALID,2.07493,
2005-01-05, 01:10:00,VALID,917.661,VALID,0,VALID,97.9453,VALID,0,VALID,19.8943,VALID,134,VALID,1.76399,
2005-01-05, 01:11:00,VALID,917.646,VALID,0,VALID,97.9631,VALID,0,VALID,19.904,VALID,132,VALID,2.02028,
2005-01-05, 01:12:00,VALID,917.622,VALID,0,VALID,97.953,VALID,0.0169808,VALID,19.8975,VALID,133,VALID,1.79778,
2005-01-05, 01:13:00,VALID,917.603,VALID,0,VALID,98.0369,VALID,-0.0169808,VALID,19.891,VALID,130,VALID,1.71523,
2005-01-05, 01:14:00,VALID,917.59,VALID,0,VALID,98.0865,VALID,0,VALID,19.8816,VALID,127,VALID,1.60995,
2005-01-05, 01:15:00,VALID,917.562,VALID,0,VALID,98.0623,VALID,0,VALID,19.8816,VALID,138,VALID,1.90587,
2005-01-05, 01:16:00,VALID,917.543,VALID,0,VALID,97.8512,VALID,-0.0169808,VALID,19.8746,VALID,136,VALID,1.64769,
2005-01-05, 01:17:00,VALID,917.53,VALID,0,VALID,97.7254,VALID,0,VALID,19.8846,VALID,137,VALID,1.83854,
2005-01-05, 01:18:00,VALID,917.513,VALID,0,VALID,97.7279,VALID,-0.0169808,VALID,19.8814,VALID,126,VALID,1.67278,
2005-01-05, 01:19:00,VALID,917.516,VALID,0,VALID,97.6859,VALID,-0.0339617,VALID,19.8913,VALID,120,VALID,1.42001,
2005-01-05, 01:20:00,VALID,917.506,VALID,0,VALID,97.6656,VALID,0,VALID,19.8846,VALID,127,VALID,1.31997,
2005-01-05, 01:21:00,VALID,917.493,VALID,0,VALID,97.6808,VALID,0,VALID,19.8587,VALID,134,VALID,1.62656,
2005-01-05, 01:22:00,VALID,917.479,VALID,0,VALID,97.677,VALID,0,VALID,19.8597,VALID,124,VALID,1.29261,
2005-01-05, 01:23:00,VALID,917.467,VALID,0,VALID,97.7368,VALID,0,VALID,19.8329,VALID,120,VALID,1.15644,
2005-01-05, 01:24:00,VALID,917.465,VALID,0,VALID,97.7966,VALID,0,VALID,19.8173,VALID,112,VALID,1.14878,
2005-01-05, 01:25:00,VALID,917.45,VALID,0,VALID,97.8233,VALID,0,VALID,19.8043,VALID,113,VALID,1.56623,
2005-01-05, 01:26:00,VALID,917.434,VALID,0,VALID,97.8741,VALID,-0.0169808,VALID,19.7815,VALID,101,VALID,1.31764,
2005-01-05, 01:27:00,VALID,917.423,VALID,0,VALID,97.9148,VALID,-0.0169808,VALID,19.7715,VALID,130,VALID,1.16697,
2005-01-05, 01:28:00,VALID,917.426,VALID,0,VALID,98.0013,VALID,0,VALID,19.7527,VALID,112,VALID,1.49582,
2005-01-05, 01:29:00,VALID,917.403,VALID,0,VALID,98.0941,VALID,-0.0169808,VALID,19.733,VALID,123,VALID,1.7926,
2005-01-05, 01:30:00,VALID,917.4,VALID,0,VALID,98.0967,VALID,-0.0169808,VALID,19.7263,VALID,118,VALID,1.95592,
2005-01-05, 01:31:00,VALID,917.388,VALID,0,VALID,98.0064,VALID,-0.0339617,VALID,19.7427,VALID,122,VALID,1.95196,
2005-01-05, 01:32:00,VALID,917.386,VALID,0,VALID,97.8754,VALID,-0.0169808,VALID,19.772,VALID,120,VALID,1.67597,
2005-01-05, 01:33:00,VALID,917.369,VALID,0,VALID,97.7215,VALID,0,VALID,19.8014,VALID,119,VALID,1.90365,
2005-01-05, 01:34:00,VALID,917.367,VALID,0,VALID,97.6681,VALID,-0.0849042,VALID,19.815,VALID,122,VALID,1.64116,
2005-01-05, 01:35:00,VALID,917.361,VALID,0,VALID,97.6491,VALID,-0.0849042,VALID,19.8118,VALID,110,VALID,1.81995,
2005-01-05, 01:36:00,VALID,917.348,VALID,0,VALID,97.5397,VALID,-0.0679233,VALID,19.8148,VALID,120,VALID,2.0013,
2005-01-05, 01:37:00,VALID,917.364,VALID,0,VALID,97.4558,VALID,-0.0849042,VALID,19.8506,VALID,121,VALID,1.76228,
2005-01-05, 01:38:00,VALID,917.349,VALID,0,VALID,97.4405,VALID,-0.0679233,VALID,19.8605,VALID,133,VALID,1.64648,
2005-01-05, 01:39:00,VALID,917.326,VALID,0,VALID,97.438,VALID,-0.0849042,VALID,19.8538,VALID,131,VALID,1.4881,
2005-01-05, 01:40:00,VALID,917.306,VALID,0,VALID,97.4685,VALID,-0.101885,VALID,19.8478,VALID,127,VALID,1.76696,
2005-01-05, 01:41:00,VALID,917.301,VALID,0,VALID,97.5206,VALID,-0.0509425,VALID,19.8511,VALID,117,VALID,2.32598,
2005-01-05, 01:42:00,VALID,917.294,VALID,0,VALID,97.5422,VALID,-0.0849042,VALID,19.8344,VALID,117,VALID,1.92857,
2005-01-05, 01:43:00,VALID,917.28,VALID,0,VALID,97.5626,VALID,-0.0679233,VALID,19.8342,VALID,102,VALID,1.13186,
2005-01-05, 01:44:00,VALID,917.262,VALID,0,VALID,97.6109,VALID,-0.0339617,VALID,19.8148,VALID,119,VALID,1.68064,
2005-01-05, 01:45:00,VALID,917.261,VALID,0,VALID,97.6707,VALID,-0.0679233,VALID,19.8153,VALID,111,VALID,2.28887,
2005-01-05, 01:46:00,VALID,917.248,VALID,0,VALID,97.6554,VALID,-0.0509425,VALID,19.8217,VALID,100,VALID,2.22567,
2005-01-05, 01:47:00,VALID,917.235,VALID,0,VALID,97.6541,VALID,-0.0679233,VALID,19.8083,VALID,129,VALID,2.38699,
2005-01-05, 01:48:00,VALID,917.226,VALID,0,VALID,97.5117,VALID,-0.0679233,VALID,19.8309,VALID,117,VALID,1.52548,
2005-01-05, 01:49:00,VALID,917.205,VALID,0,VALID,97.3401,VALID,-0.0169808,VALID,19.8503,VALID,142,VALID,1.72972,
2005-01-05, 01:50:00,VALID,917.197,VALID,0,VALID,97.1099,VALID,-0.101885,VALID,19.8799,VALID,129,VALID,1.34208,
2005-01-05, 01:51:00,VALID,917.196,VALID,0,VALID,96.9586,VALID,-0.0849042,VALID,19.899,VALID,94,VALID,1.26734,
2005-01-05, 01:52:00,VALID,917.169,VALID,0,VALID,96.9675,VALID,-0.0849042,VALID,19.8891,VALID,107,VALID,0.977471,
2005-01-05, 01:53:00,VALID,917.149,VALID,0,VALID,97.0349,VALID,-0.101885,VALID,19.8896,VALID,139,VALID,1.26116,
2005-01-05, 01:54:00,VALID,917.116,VALID,0,VALID,97.0629,VALID,-0.101885,VALID,19.8764,VALID,123,VALID,1.24219,
2005-01-05, 01:55:00,VALID,917.097,VALID,0,VALID,97.0234,VALID,-0.0679233,VALID,19.8729,VALID,108,VALID,1.34466,
2005-01-05, 01:56:00,VALID,917.087,VALID,0,VALID,96.9535,VALID,-0.0849042,VALID,19.8965,VALID,127,VALID,0.9375,
2005-01-05, 01:57:00,VALID,917.077,VALID,0,VALID,96.9573,VALID,-0.0679233,VALID,19.8764,VALID,143,VALID,1.62361,
2005-01-05, 01:58:00,VALID,917.047,VALID,0,VALID,96.6852,VALID,-0.0339617,VALID,19.9022,VALID,126,VALID,2.37969,
2005-01-05, 01:59:00,VALID,917.051,VALID,0,VALID,96.3953,VALID,-0.0679233,VALID,19.9542,VALID,114,VALID,1.22935,
2005-01-05, 02:00:00,VALID,917.044,VALID,0,VALID,96.38,VALID,-0.0849042,VALID,19.9636,VALID,133,VALID,1.25677,
2005-01-05, 02:01:00,VALID,917.035,VALID,0,VALID,96.5313,VALID,-0.0339617,VALID,19.9507,VALID,132,VALID,1.92238,
2005-01-05, 02:02:00,VALID,917.022,VALID,0,VALID,96.5555,VALID,-0.0679233,VALID,19.9504,VALID,127,VALID,2.43351,
2005-01-05, 02:03:00,VALID,917.008,VALID,0,VALID,96.4118,VALID,-0.0339617,VALID,19.9768,VALID,118,VALID,2.40848,
2005-01-05, 02:04:00,VALID,917.006,VALID,0,VALID,96.3584,VALID,0.0509425,VALID,19.9815,VALID,131,VALID,2.26835,
2005-01-05, 02:05:00,VALID,916.995,VALID,0,VALID,96.3978,VALID,0.0339617,VALID,19.9847,VALID,124,VALID,2.34304,
2005-01-05, 02:06:00,VALID,916.993,VALID,0,VALID,96.3813,VALID,0,VALID,19.9944,VALID,126,VALID,2.59922,
2005-01-05, 02:07:00,VALID,916.983,VALID,0,VALID,96.3953,VALID,0.0509425,VALID,20.0108,VALID,118,VALID,2.07656,
2005-01-05, 02:08:00,VALID,916.966,VALID,0,VALID,96.4258,VALID,0.0169808,VALID,19.9942,VALID,123,VALID,2.33467,
2005-01-05, 02:09:00,VALID,916.954,VALID,0,VALID,96.3444,VALID,0.0679233,VALID,19.9939,VALID,120,VALID,2.12667,
2005-01-05, 02:10:00,VALID,916.946,VALID,0,VALID,96.3253,VALID,0.0679233,VALID,20.0138,VALID,119,VALID,1.90734,
2005-01-05, 02:11:00,VALID,916.918,VALID,0,VALID,96.3342,VALID,0.0339617,VALID,20.0073,VALID,103,VALID,1.59524,
2005-01-05, 02:12:00,VALID,916.902,VALID,0,VALID,96.3686,VALID,0.0339617,VALID,19.978,VALID,116,VALID,1.63767,
2005-01-05, 02:13:00,VALID,916.881,VALID,0,VALID,96.4283,VALID,0.101885,VALID,19.9688,VALID,106,VALID,1.48761,
2005-01-05, 02:14:00,VALID,916.865,VALID,0,VALID,96.3673,VALID,0.0509425,VALID,19.9586,VALID,108,VALID,1.55905,
2005-01-05, 02:15:00,VALID,916.846,VALID,0,VALID,96.2643,VALID,0.0679233,VALID,19.9686,VALID,114,VALID,1.38754,
2005-01-05, 02:16:00,VALID,916.838,VALID,0,VALID,96.1587,VALID,0.0679233,VALID,19.9619,VALID,122,VALID,1.35305,
2005-01-05, 02:17:00,VALID,916.84,VALID,0,VALID,95.5802,VALID,0.0849042,VALID,19.9877,VALID,98,VALID,1.53837,
2005-01-05, 02:18:00,VALID,916.831,VALID,0,VALID,95.2355,VALID,0.0509425,VALID,20.0463,VALID,109,VALID,1.65004,
2005-01-05, 02:19:00,VALID,916.828,VALID,0,VALID,95.0054,VALID,-0.0169808,VALID,20.0794,VALID,112,VALID,1.55202,
2005-01-05, 02:20:00,VALID,916.798,VALID,0,VALID,95.1135,VALID,-0.0339617,VALID,20.1058,VALID,89,VALID,1.6627,
2005-01-05, 02:21:00,VALID,916.795,VALID,0,VALID,95.1821,VALID,-0.0339617,VALID,20.0767,VALID,115,VALID,1.67397,
2005-01-05, 02:22:00,VALID,916.783,VALID,0,VALID,94.7625,VALID,-0.0169808,VALID,20.0727,VALID,107,VALID,1.99833,
2005-01-05, 02:23:00,VALID,916.77,VALID,0,VALID,94.5235,VALID,-0.0509425,VALID,20.1311,VALID,78,VALID,2.02559,
2005-01-05, 02:24:00,VALID,916.764,VALID,0,VALID,94.0669,VALID,-0.0509425,VALID,20.1631,VALID,109,VALID,1.39433,
2005-01-05, 02:25:00,VALID,916.757,VALID,0,VALID,93.6753,VALID,-0.0849042,VALID,20.225,VALID,92,VALID,1.68173,
2005-01-05, 02:26:00,VALID,916.751,VALID,0,VALID,93.571,VALID,-0.0509425,VALID,20.2673,VALID,115,VALID,1.89492,
2005-01-05, 02:27:00,VALID,916.737,VALID,0,VALID,93.29,VALID,-0.0339617,VALID,20.2931,VALID,116,VALID,1.96094,
2005-01-05, 02:28:00,VALID,916.725,VALID,0,VALID,93.0191,VALID,-0.0679233,VALID,20.3448,VALID,110,VALID,1.78997,
2005-01-05, 02:29:00,VALID,916.711,VALID,0,VALID,92.9581,VALID,-0.0679233,VALID,20.3674,VALID,109,VALID,1.4474,
2005-01-05, 02:30:00,VALID,916.675,VALID,0,VALID,93.0153,VALID,-0.0509425,VALID,20.3776,VALID,122,VALID,1.52925,
2005-01-05, 02:31:00,VALID,916.659,VALID,0,VALID,93.1387,VALID,-0.0339617,VALID,20.3672,VALID,121,VALID,1.90752,
2005-01-05, 02:32:00,VALID,916.64,VALID,0,VALID,93.0573,VALID,-0.0169808,VALID,20.3764,VALID,129,VALID,1.4072,
2005-01-05, 02:33:00,VALID,916.623,VALID,0,VALID,93.0904,VALID,-0.0169808,VALID,20.403,VALID,119,VALID,1.5971,
2005-01-05, 02:34:00,VALID,916.618,VALID,0,VALID,93.2544,VALID,0,VALID,20.3885,VALID,107,VALID,1.63914,
2005-01-05, 02:35:00,VALID,916.6,VALID,0,VALID,93.5609,VALID,0,VALID,20.353,VALID,108,VALID,1.47154,
2005-01-05, 02:36:00,VALID,916.582,VALID,0,VALID,93.8126,VALID,0,VALID,20.3078,VALID,109,VALID,1.80971,
2005-01-05, 02:37:00,VALID,916.579,VALID,0,VALID,94.0288,VALID,0,VALID,20.2722,VALID,111,VALID,1.76395,
2005-01-05, 02:38:00,VALID,916.56,VALID,0,VALID,94.2005,VALID,0,VALID,20.2466,VALID,106,VALID,1.16661,
2005-01-05, 02:39:00,VALID,916.548,VALID,0,VALID,94.2768,VALID,0.0339617,VALID,20.2141,VALID,127,VALID,2.01101,
2005-01-05, 02:40:00,VALID,916.512,VALID,0,VALID,94.2704,VALID,0,VALID,20.2138,VALID,142,VALID,1.57832,
2005-01-05, 02:41:00,VALID,916.517,VALID,0,VALID,94.3785,VALID,0,VALID,20.2205,VALID,134,VALID,2.03325,
2005-01-05, 02:42:00,VALID,916.503,VALID,0,VALID,94.4548,VALID,0,VALID,20.2364,VALID,130,VALID,2.19308,
2005-01-05, 02:43:00,VALID,916.512,VALID,0,VALID,94.6252,VALID,0,VALID,20.2335,VALID,134,VALID,1.80669,
2005-01-05, 02:44:00,VALID,916.515,VALID,0,VALID,94.807,VALID,0,VALID,20.1977,VALID,129,VALID,1.72135,
2005-01-05, 02:45:00,VALID,916.518,VALID,0,VALID,94.8846,VALID,0,VALID,20.1619,VALID,129,VALID,1.9984,
2005-01-05, 02:46:00,VALID,916.524,VALID,0,VALID,94.8744,VALID,0.0339617,VALID,20.1524,VALID,108,VALID,1.53497,
2005-01-05, 02:47:00,VALID,916.542,VALID,0,VALID,95.1122,VALID,0,VALID,20.1269,VALID,115,VALID,1.10529,
2005-01-05, 02:48:00,VALID,916.543,VALID,0,VALID,95.364,VALID,0.0169808,VALID,20.1005,VALID,115,VALID,1.51753,
2005-01-05, 02:49:00,VALID,916.544,VALID,0,VALID,95.5585,VALID,-0.0849042,VALID,20.0859,VALID,125,VALID,1.50854,
2005-01-05, 02:50:00,VALID,916.537,VALID,0,VALID,95.7366,VALID,-0.101885,VALID,20.0735,VALID,125,VALID,1.53198,
2005-01-05, 02:51:00,VALID,916.541,VALID,0,VALID,95.9197,VALID,-0.101885,VALID,20.0543,VALID,128,VALID,1.80687,
2005-01-05, 02:52:00,VALID,916.526,VALID,0,VALID,95.8599,VALID,-0.101885,VALID,20.0312,VALID,105,VALID,2.03658,
2005-01-05, 02:53:00,VALID,916.525,VALID,0,VALID,95.6476,VALID,-0.101885,VALID,20.0441,VALID,119,VALID,1.2847,
2005-01-05, 02:54:00,VALID,916.541,VALID,0,VALID,95.336,VALID,-0.0849042,VALID,20.0635,VALID,120,VALID,2.08921,
2005-01-05, 02:55:00,VALID,916.519,VALID,0,VALID,95.2686,VALID,-0.101885,VALID,20.0988,VALID,128,VALID,1.87742,
2005-01-05, 02:56:00,VALID,916.502,VALID,0,VALID,95.2368,VALID,-0.0509425,VALID,20.1346,VALID,122,VALID,1.60286,
2005-01-05, 02:57:00,VALID,916.489,VALID,0,VALID,95.1491,VALID,-0.0849042,VALID,20.1249,VALID,126,VALID,1.9248,
2005-01-05, 02:58:00,VALID,916.469,VALID,0,VALID,94.9176,VALID,-0.101885,VALID,20.1577,VALID,133,VALID,1.8294,
2005-01-05, 02:59:00,VALID,916.461,VALID,0,VALID,94.6684,VALID,-0.101885,VALID,20.1932,VALID,134,VALID,1.82106,
2005-01-05, 03:00:00,VALID,916.452,VALID,0,VALID,94.4891,VALID,-0.0679233,VALID,20.2086,VALID,132,VALID,1.41297,
2005-01-05, 03:01:00,VALID,916.457,VALID,0,VALID,94.4853,VALID,-0.0849042,VALID,20.2345,VALID,130,VALID,1.60119,
2005-01-05, 03:02:00,VALID,916.459,VALID,0,VALID,94.6659,VALID,-0.101885,VALID,20.2218,VALID,130,VALID,1.53258,
2005-01-05, 03:03:00,VALID,916.438,VALID,0,VALID,94.7371,VALID,-0.0509425,VALID,20.1987,VALID,134,VALID,1.56214,
2005-01-05, 03:04:00,VALID,916.433,VALID,0,VALID,94.6392,VALID,0,VALID,20.1847,VALID,125,VALID,1.65662,
2005-01-05, 03:05:00,VALID,916.432,VALID,0,VALID,94.4052,VALID,0.0169808,VALID,20.2074,VALID,131,VALID,2.22732,
2005-01-05, 03:06:00,VALID,916.426,VALID,0,VALID,93.8991,VALID,0,VALID,20.2685,VALID,138,VALID,2.4826,
2005-01-05, 03:07:00,VALID,916.42,VALID,0,VALID,93.4146,VALID,0,VALID,20.343,VALID,126,VALID,2.14577,
2005-01-05, 03:08:00,VALID,916.431,VALID,0,VALID,93.0942,VALID,0,VALID,20.4109,VALID,140,VALID,1.87518,
2005-01-05, 03:09:00,VALID,916.419,VALID,0,VALID,92.9467,VALID,0.0169808,VALID,20.4569,VALID,146,VALID,1.8085,
2005-01-05, 03:10:00,VALID,916.427,VALID,0,VALID,93.1183,VALID,0.0169808,VALID,20.4695,VALID,123,VALID,1.6859,
2005-01-05, 03:11:00,VALID,916.431,VALID,0,VALID,93.3637,VALID,0,VALID,20.4434,VALID,129,VALID,1.85956,
2005-01-05, 03:12:00,VALID,916.417,VALID,0,VALID,93.7147,VALID,-0.0169808,VALID,20.4014,VALID,130,VALID,1.20952,
2005-01-05, 03:13:00,VALID,916.427,VALID,0,VALID,93.9868,VALID,0,VALID,20.3495,VALID,131,VALID,1.2381,
2005-01-05, 03:14:00,VALID,916.437,VALID,0,VALID,94.2068,VALID,0.0169808,VALID,20.3239,VALID,129,VALID,1.58299,
2005-01-05, 03:15:00,VALID,916.436,VALID,0,VALID,94.4281,VALID,0,VALID,20.2779,VALID,108,VALID,1.14634,
2005-01-05, 03:16:00,VALID,916.434,VALID,0,VALID,94.4993,VALID,0,VALID,20.269,VALID,137,VALID,1.50476,
2005-01-05, 03:17:00,VALID,916.432,VALID,0,VALID,94.5349,VALID,0,VALID,20.2523,VALID,136,VALID,1.61959,
2005-01-05, 03:18:00,VALID,916.437,VALID,0,VALID,94.6392,VALID,0,VALID,20.2526,VALID,145,VALID,1.65588,
2005-01-05, 03:19:00,VALID,916.453,VALID,0,VALID,94.7104,VALID,0.0849042,VALID,20.2513,VALID,143,VALID,1.50838,
2005-01-05, 03:20:00,VALID,916.462,VALID,0,VALID,94.835,VALID,0.101885,VALID,20.2448,VALID,136,VALID,1.05545,
2005-01-05, 03:21:00,VALID,916.48,VALID,0,VALID,94.9736,VALID,0.101885,VALID,20.2252,VALID,146,VALID,0.650923,
2005-01-05, 03:22:00,VALID,916.476,VALID,0,VALID,95.1554,VALID,0.118866,VALID,20.2123,VALID,138,VALID,1.22293,
2005-01-05, 03:23:00,VALID,916.493,VALID,0,VALID,95.3398,VALID,0.0849042,VALID,20.1934,VALID,135,VALID,1.03984,
2005-01-05, 03:24:00,VALID,916.5,VALID,0,VALID,95.4848,VALID,0.101885,VALID,20.1636,VALID,123,VALID,0.986852,
2005-01-05, 03:25:00,VALID,916.501,VALID,0,VALID,95.6247,VALID,0.0849042,VALID,20.1541,VALID,135,VALID,1.01734,
2005-01-05, 03:26:00,VALID,916.489,VALID,0,VALID,95.7645,VALID,0.101885,VALID,20.1547,VALID,149,VALID,0.8375,
2005-01-05, 03:27:00,VALID,916.475,VALID,0,VALID,95.837,VALID,0.101885,VALID,20.1313,VALID,140,VALID,1.30297,
2005-01-05, 03:28:00,VALID,916.465,VALID,0,VALID,95.8459,VALID,0.101885,VALID,20.1283,VALID,144,VALID,1.02663,
2005-01-05, 03:29:00,VALID,916.452,VALID,0,VALID,95.9082,VALID,0.101885,VALID,20.1189,VALID,149,VALID,1.22674,
2005-01-05, 03:30:00,VALID,916.445,VALID,0,VALID,96.0023,VALID,0.101885,VALID,20.1119,VALID,144,VALID,1.21649,
2005-01-05, 03:31:00,VALID,916.434,VALID,0,VALID,96.0596,VALID,0.101885,VALID,20.1092,VALID,147,VALID,1.35226,
2005-01-05, 03:32:00,VALID,916.432,VALID,0,VALID,96.1257,VALID,0.0849042,VALID,20.1151,VALID,145,VALID,1.23801,
2005-01-05, 03:33:00,VALID,916.425,VALID,0,VALID,96.2363,VALID,0.101885,VALID,20.0925,VALID,137,VALID,0.824491,
2005-01-05, 03:34:00,VALID,916.417,VALID,0,VALID,96.3609,VALID,0,VALID,20.0876,VALID,121,VALID,0.800145,
2005-01-05, 03:35:00,VALID,916.415,VALID,0,VALID,96.511,VALID,0,VALID,20.065,VALID,118,VALID,0.919744,